This is the latest recevied weather packets stored in our database for station/object 4S6DRJ-13. If no packets are shown the sender has not sent any weather packets the latest 10 day(s).
| Time | Temp. | Humidity | Pressure | Rain* | Wind** | Luminosity | Snow |
|---|---|---|---|---|---|---|---|
| 1788380509 | 27.78° C | 86% | 1009.4 hPa | 0 mm | 0 m/s | 0 W/m² | - |
| 1788380448 | 27.78° C | 86% | 1009.3 hPa | 0 mm | 0 m/s | 0 W/m² | - |
| 1788380387 | 27.78° C | 86% | 1009.2 hPa | 0 mm | 1.34 m/s, 230° | 0 W/m² | - |
| 1788380326 | 27.78° C | 86% | 1009.3 hPa | 0 mm | 0.45 m/s, 241° | 0 W/m² | - |
| 1788380265 | 27.78° C | 86% | 1009.3 hPa | 0 mm | 0.89 m/s, 220° | 0 W/m² | - |
| 1788380204 | 27.78° C | 86% | 1009.3 hPa | 0 mm | 0 m/s | 0 W/m² | - |
| 1788380143 | 27.78° C | 86% | 1009.5 hPa | 0 mm | 0.45 m/s, 263° | 0 W/m² | - |
| 1788380082 | 27.78° C | 86% | 1009.4 hPa | 0 mm | 0.89 m/s, 206° | 0 W/m² | - |
| 1788380021 | 27.78° C | 86% | 1009.4 hPa | 0 mm | 0.89 m/s, 254° | 0 W/m² | - |
| 1788379961 | 27.78° C | 86% | 1009.5 hPa | 0 mm | 0.89 m/s, 204° | 0 W/m² | - |
| 1788379899 | 27.78° C | 86% | 1009.5 hPa | 0 mm | 0.45 m/s, 224° | 0 W/m² | - |
| 1788379838 | 27.78° C | 86% | 1009.5 hPa | 0 mm | 1.34 m/s, 203° | 0 W/m² | - |
| 1788379777 | 27.78° C | 86% | 1009.4 hPa | 0 mm | 0.45 m/s, 197° | 0 W/m² | - |
| 1788379716 | 27.78° C | 86% | 1009.4 hPa | 0 mm | 0 m/s | 0 W/m² | - |
| 1788379655 | 27.78° C | 86% | 1009.4 hPa | 0 mm | 0.89 m/s, 225° | 0 W/m² | - |
| 1788379594 | 27.78° C | 86% | 1009.4 hPa | 0 mm | 0.45 m/s, 242° | 0 W/m² | - |
| 1788379533 | 27.78° C | 86% | 1009.4 hPa | 0 mm | 0.45 m/s, 236° | 0 W/m² | - |
| 1788379472 | 27.78° C | 86% | 1009.5 hPa | 0 mm | 0.89 m/s, 218° | 0 W/m² | - |
| 1788379411 | 27.78° C | 86% | 1009.6 hPa | 0 mm | 1.79 m/s, 192° | 0 W/m² | - |
| 1788379350 | 27.78° C | 86% | 1009.5 hPa | 0 mm | 1.34 m/s, 253° | 0 W/m² | - |
| 1788379289 | 27.78° C | 86% | 1009.7 hPa | 0 mm | 0.45 m/s, 213° | 0 W/m² | - |
| 1788379228 | 27.78° C | 86% | 1009.6 hPa | 0 mm | 1.34 m/s, 221° | 0 W/m² | - |
| 1788379167 | 27.78° C | 86% | 1009.5 hPa | 0 mm | 0.89 m/s, 237° | 0 W/m² | - |
| 1788379106 | 27.78° C | 86% | 1009.4 hPa | 0 mm | 0.45 m/s, 219° | 0 W/m² | - |
| 1788379045 | 27.78° C | 85% | 1009.5 hPa | 0 mm | 0 m/s | 0 W/m² | - |
* Rain latest hour (hover to see other rain measurements)
** Current wind speed in m/s (hover to see current wind gust speed)